WXM80 ListenWXM80 Stop

You find our weather info also at:

UK Metoffice

WeatherCloud

Weather Underground

Northeastern Weather Network

AWEKAS

Citizen Weather Observer Program (CWOP)

HAMweather, WeatherForYou, PWS Weather


Weather Underground History page Text

Daily Summary for August 27, 2017 Units:  Metric    English   Both
« Previous Day
Next Day »
Daily Weekly Monthly Yearly Custom
  High: Low: Average:
Temperature: 26.1 °C 14.2 °C 19.6 °C
Dew Point: 17.7 °C 11.6 °C 13.9 °C
Humidity: 91 % 42 % 71 %
Wind Speed: 8.2 km/h 0 km/h 1.6 km/h
Wind Gust: 14.8 km/h - -
Wind:- - East
Pressure: 1023.9 hPa 1021.2 hPa -
Precipitation: 0 mm    
Historical Graphs
 
 
Tabular Data for August 27, 2017
Time Temperature Dew Point Pressure Wind Wind Speed Wind Gust Humidity Rainfall Rate (Hourly)
00:00 15.3 °C 12.8 °C 1022.9 hPa Calm     85 % 0 mm
00:05 15.2 °C 12.7 °C 1022.9 hPa Calm     85 % 0 mm
00:10 15.2 °C 12.7 °C 1022.9 hPa West 0.2 km/h 1.9 km/h 85 % 0 mm
00:15 15.2 °C 12.8 °C 1022.9 hPa Calm     86 % 0 mm
00:20 15.1 °C 12.8 °C 1022.9 hPa Calm     86 % 0 mm
00:25 15.1 °C 12.8 °C 1022.9 hPa West 1.1 km/h 1.9 km/h 86 % 0 mm
00:30 15.1 °C 12.9 °C 1022.9 hPa Calm   1.9 km/h 87 % 0 mm
00:35 15.1 °C 12.9 °C 1022.9 hPa Calm     87 % 0 mm
00:40 15.1 °C 12.9 °C 1022.9 hPa Calm     87 % 0 mm
00:45 15.1 °C 13.1 °C 1022.9 hPa West 0.5 km/h 1.9 km/h 88 % 0 mm
00:50 15.1 °C 13.1 °C 1022.9 hPa Calm     88 % 0 mm
00:52 15.1 °C 13.1 °C 1022.9 hPa Calm     88 % 0 mm
00:57 15.1 °C 13.1 °C 1022.9 hPa Calm     88 % 0 mm
01:02 15.1 °C 13.1 °C 1022.9 hPa Calm     88 % 0 mm
01:07 15.1 °C 13.1 °C 1022.9 hPa Calm     88 % 0 mm
01:12 15.1 °C 13.1 °C 1022.9 hPa Calm     88 % 0 mm
01:17 15.1 °C 13.3 °C 1022.9 hPa Calm     89 % 0 mm
01:22 15.1 °C 13.3 °C 1022.6 hPa Calm   1.9 km/h 89 % 0 mm
01:27 15.1 °C 13.3 °C 1022.6 hPa West 0.3 km/h 1.6 km/h 89 % 0 mm
01:32 15.1 °C 13.1 °C 1022.6 hPa West 0.8 km/h 3.7 km/h 88 % 0 mm
01:37 15.1 °C 13.1 °C 1022.6 hPa West 1 km/h 1.9 km/h 88 % 0 mm
01:42 15.1 °C 12.9 °C 1022.6 hPa West 1 km/h 3.7 km/h 87 % 0 mm
01:47 15.1 °C 12.9 °C 1022.6 hPa Calm     87 % 0 mm
01:52 15.1 °C 12.9 °C 1022.6 hPa Calm     87 % 0 mm
01:57 15.1 °C 12.7 °C 1022.6 hPa West 0.6 km/h 1.9 km/h 86 % 0 mm
02:02 15.1 °C 12.7 °C 1022.6 hPa West 1 km/h 3.7 km/h 86 % 0 mm
02:07 15.1 °C 12.7 °C 1022.6 hPa West 0.6 km/h 1.9 km/h 86 % 0 mm
02:12 15.1 °C 12.7 °C 1022.6 hPa West 0.3 km/h 1.9 km/h 86 % 0 mm
02:17 15 °C 12.7 °C 1022.6 hPa Calm     86 % 0 mm
02:22 14.9 °C 12.6 °C 1022.6 hPa West 0.2 km/h 1.9 km/h 86 % 0 mm
02:27 14.9 °C 12.6 °C 1022.6 hPa West 0.2 km/h 1.9 km/h 86 % 0 mm
02:32 14.8 °C 12.5 °C 1022.6 hPa Calm     86 % 0 mm
02:38 14.8 °C 12.4 °C 1022.6 hPa Calm     86 % 0 mm
02:43 14.8 °C 12.4 °C 1022.6 hPa West 0.2 km/h 1.9 km/h 86 % 0 mm
02:48 14.7 °C 12.3 °C 1022.6 hPa West 0.2 km/h 1.9 km/h 86 % 0 mm
02:53 14.6 °C 12.3 °C 1022.6 hPa Calm   1.9 km/h 86 % 0 mm
02:58 14.6 °C 12.4 °C 1022.6 hPa Calm     87 % 0 mm
03:03 14.6 °C 12.4 °C 1022.6 hPa West 0.2 km/h 1.6 km/h 87 % 0 mm
03:08 14.5 °C 12.3 °C 1022.6 hPa West 2.3 km/h 3.7 km/h 87 % 0 mm
03:13 14.4 °C 12.3 °C 1022.6 hPa Calm   1.9 km/h 87 % 0 mm
03:18 14.4 °C 12.3 °C 1022.6 hPa West 0.2 km/h 1.6 km/h 87 % 0 mm
03:23 14.3 °C 12.4 °C 1022.6 hPa Calm     88 % 0 mm
03:28 14.3 °C 12.3 °C 1022.6 hPa Calm     88 % 0 mm
03:33 14.3 °C 12.3 °C 1022.6 hPa Calm     88 % 0 mm
03:38 14.2 °C 12.3 °C 1022.6 hPa Calm     88 % 0 mm
03:43 14.2 °C 12.3 °C 1022.6 hPa Calm     88 % 0 mm
03:48 14.2 °C 12.4 °C 1022.9 hPa Calm     89 % 0 mm
03:53 14.2 °C 12.2 °C 1022.9 hPa Calm   1.9 km/h 88 % 0 mm
03:59 14.2 °C 12.4 °C 1022.6 hPa West 0.2 km/h   89 % 0 mm
04:04 14.2 °C 12.4 °C 1022.6 hPa West 0.3 km/h 3.7 km/h 89 % 0 mm
04:09 14.2 °C 12.6 °C 1022.6 hPa North 3.2 km/h 4.8 km/h 90 % 0 mm
04:14 14.2 °C 12.7 °C 1022.6 hPa Calm   3.7 km/h 91 % 0 mm
04:19 14.2 °C 12.8 °C 1022.6 hPa Calm     91 % 0 mm
04:20 14.2 °C 12.6 °C 1022.6 hPa Calm     90 % 0 mm
04:25 14.2 °C 12.8 °C 1022.6 hPa North 1.4 km/h 5.6 km/h 91 % 0 mm
04:30 14.3 °C 12.8 °C 1022.6 hPa NNE 2.9 km/h 5.6 km/h 91 % 0 mm
04:35 14.3 °C 12.9 °C 1022.6 hPa NNE 1.1 km/h 5.6 km/h 91 % 0 mm
04:40 14.4 °C 12.9 °C 1022.6 hPa NE 2.3 km/h 5.6 km/h 91 % 0 mm
04:45 14.4 °C 13 °C 1022.6 hPa NNE 1.1 km/h 3.7 km/h 91 % 0 mm
04:50 14.5 °C 12.9 °C 1022.6 hPa NNE 3.7 km/h 6.4 km/h 90 % 0 mm
04:55 14.6 °C 13 °C 1022.6 hPa NNE 4.2 km/h 8 km/h 90 % 0 mm
05:00 14.7 °C 13.1 °C 1022.6 hPa North 5.8 km/h 7.4 km/h 90 % 0 mm
05:05 14.8 °C 13.2 °C 1022.6 hPa Calm   3.7 km/h 90 % 0 mm
05:10 14.9 °C 13.3 °C 1022.6 hPa NE 1.6 km/h 3.7 km/h 90 % 0 mm
05:11 14.9 °C 13.3 °C 1022.6 hPa NE 0.6 km/h 3.7 km/h 90 % 0 mm
05:16 15 °C 13.2 °C 1022.6 hPa NE 1.6 km/h 4.8 km/h 89 % 0 mm
05:21 15.1 °C 13.3 °C 1022.9 hPa Calm     89 % 0 mm
05:26 15.1 °C 13.1 °C 1022.6 hPa Calm     88 % 0 mm
05:31 15.2 °C 13.2 °C 1022.6 hPa ENE 0.5 km/h 1.9 km/h 88 % 0 mm
05:36 15.2 °C 13.2 °C 1022.6 hPa ENE 0.2 km/h 1.9 km/h 88 % 0 mm
05:41 15.2 °C 13.1 °C 1022.6 hPa NE 1.3 km/h 1.9 km/h 87 % 0 mm
05:46 15.2 °C 13.1 °C 1022.9 hPa ENE 0.3 km/h 5.6 km/h 87 % 0 mm
05:52 15.2 °C 13.1 °C 1022.9 hPa Calm     87 % 0 mm
05:57 15.2 °C 13.1 °C 1022.9 hPa ENE 0.5 km/h 3.2 km/h 87 % 0 mm
06:02 15.2 °C 13.1 °C 1022.9 hPa Calm     87 % 0 mm
06:07 15.2 °C 13.1 °C 1022.9 hPa North 1.4 km/h 1.9 km/h 87 % 0 mm
06:12 15.2 °C 13.1 °C 1022.9 hPa ENE 1.8 km/h 7.4 km/h 87 % 0 mm
06:17 15.2 °C 13.1 °C 1023.2 hPa NE 1.4 km/h 6.4 km/h 87 % 0 mm
06:22 15.3 °C 13.1 °C 1022.9 hPa NE 0.6 km/h 3.7 km/h 87 % 0 mm
06:27 15.3 °C 13.1 °C 1023.2 hPa NNE 1 km/h 5.6 km/h 87 % 0 mm
06:32 15.3 °C 13.2 °C 1023.2 hPa NE 1.4 km/h 3.7 km/h 87 % 0 mm
06:37 15.3 °C 13.2 °C 1023.2 hPa NNE 1 km/h 3.7 km/h 87 % 0 mm
06:42 15.4 °C 13.3 °C 1023.2 hPa NNE 3.4 km/h 5.6 km/h 87 % 0 mm
06:47 15.4 °C 13.3 °C 1023.2 hPa NE 2.9 km/h 9.3 km/h 87 % 0 mm
06:52 15.6 °C 13.2 °C 1023.2 hPa NE 0.5 km/h 5.6 km/h 86 % 0 mm
06:57 15.6 °C 13.3 °C 1023.2 hPa NE 2.3 km/h 5.6 km/h 86 % 0 mm
07:03 15.7 °C 13.3 °C 1023.2 hPa ENE 1.6 km/h 4.8 km/h 86 % 0 mm
07:08 15.8 °C 13.4 °C 1023.2 hPa NE 3.4 km/h 8 km/h 86 % 0 mm
07:13 15.8 °C 13.3 °C 1023.2 hPa ENE 3.9 km/h 5.6 km/h 85 % 0 mm
07:18 15.9 °C 13.4 °C 1023.2 hPa NNE 2.6 km/h 5.6 km/h 85 % 0 mm
07:23 16.1 °C 13.6 °C 1023.2 hPa ENE 2.6 km/h 6.4 km/h 85 % 0 mm
07:28 16.2 °C 13.7 °C 1023.2 hPa ENE 2.9 km/h 5.6 km/h 85 % 0 mm
07:33 16.3 °C 13.6 °C 1023.2 hPa NE 2.1 km/h 7.4 km/h 84 % 0 mm
07:38 16.4 °C 13.7 °C 1023.2 hPa ENE 3.4 km/h 5.6 km/h 84 % 0 mm
07:43 16.6 °C 13.8 °C 1023.2 hPa NNE 1.8 km/h 5.6 km/h 84 % 0 mm
07:48 16.7 °C 13.8 °C 1023.2 hPa NE 2.7 km/h 5.6 km/h 83 % 0 mm
07:53 16.8 °C 13.7 °C 1023.6 hPa NE 3.1 km/h 14.5 km/h 82 % 0 mm
07:58 16.9 °C 13.8 °C 1023.2 hPa ENE 2.3 km/h 6.4 km/h 82 % 0 mm
08:03 17.1 °C 14 °C 1023.6 hPa ENE 2.7 km/h 5.6 km/h 82 % 0 mm
08:08 17.2 °C 14.1 °C 1023.6 hPa NNE 3.7 km/h 11.1 km/h 82 % 0 mm
08:13 17.4 °C 14.1 °C 1023.2 hPa NE 2.4 km/h 5.6 km/h 81 % 0 mm
08:18 17.5 °C 14 °C 1023.6 hPa ENE 4.7 km/h 9.3 km/h 80 % 0 mm
08:23 17.6 °C 14.1 °C 1023.6 hPa NE 4.2 km/h 11.1 km/h 80 % 0 mm
08:28 17.7 °C 14.2 °C 1023.2 hPa NE 6.3 km/h 14.8 km/h 80 % 0 mm
08:33 17.8 °C 14.1 °C 1023.6 hPa ENE 8.2 km/h 14.8 km/h 79 % 0 mm
08:38 17.9 °C 14.2 °C 1023.6 hPa East 8.2 km/h 14.8 km/h 79 % 0 mm
08:43 17.9 °C 14.2 °C 1023.6 hPa NE 4.8 km/h 9.3 km/h 79 % 0 mm
08:48 18.1 °C 14.3 °C 1023.6 hPa NE 4.2 km/h 7.4 km/h 79 % 0 mm
08:53 18.2 °C 14.3 °C 1023.6 hPa NE 4.3 km/h 11.1 km/h 78 % 0 mm
08:58 18.3 °C 14.6 °C 1023.6 hPa ENE 4.2 km/h 9.3 km/h 79 % 0 mm
09:03 18.4 °C 14.3 °C 1023.6 hPa ENE 5 km/h 9.3 km/h 77 % 0 mm
09:08 18.5 °C 14.2 °C 1023.6 hPa NE 6.4 km/h 9.3 km/h 76 % 0 mm
09:13 18.6 °C 14.3 °C 1023.6 hPa ENE 3.9 km/h 6.4 km/h 76 % 0 mm
09:18 18.7 °C 14.6 °C 1023.6 hPa ENE 4 km/h 7.4 km/h 77 % 0 mm
09:23 18.8 °C 14.7 °C 1023.6 hPa NE 5.8 km/h 9.3 km/h 77 % 0 mm
09:24 18.8 °C 14.7 °C 1023.6 hPa NNE 4.3 km/h 9.3 km/h 77 % 0 mm
09:29 18.9 °C 14.6 °C 1023.6 hPa ENE 5.3 km/h 13 km/h 76 % 0 mm
09:34 19.1 °C 14.7 °C 1023.6 hPa ENE 7.7 km/h 14.8 km/h 76 % 0 mm
09:39 19.2 °C 14.9 °C 1023.9 hPa NE 4.5 km/h 13 km/h 76 % 0 mm
09:44 19.4 °C 14.6 °C 1023.9 hPa ENE 4.5 km/h 14.8 km/h 74 % 0 mm
09:49 19.6 °C 14.8 °C 1023.9 hPa North 5.5 km/h 11.1 km/h 74 % 0 mm
09:54 20 °C 15.2 °C 1023.9 hPa ENE 5.1 km/h 9.3 km/h 74 % 0 mm
09:59 20.4 °C 15.2 °C 1023.9 hPa NE 4.5 km/h 9.7 km/h 72 % 0 mm
10:04 20.8 °C 15.2 °C 1023.9 hPa NE 8.2 km/h 14.8 km/h 70 % 0 mm
10:09 21 °C 15.1 °C 1023.9 hPa ENE 2.7 km/h 5.6 km/h 69 % 0 mm
10:14 21.1 °C 14.9 °C 1023.9 hPa ENE 4.2 km/h 8 km/h 68 % 0 mm
10:19 21.1 °C 15.2 °C 1023.9 hPa ENE 5.8 km/h 12.9 km/h 69 % 0 mm
10:20 21.1 °C 15.2 °C 1023.9 hPa NE 6.4 km/h 14.8 km/h 69 % 0 mm
10:25 21.1 °C 15.4 °C 1023.9 hPa NE 3.4 km/h 5.6 km/h 70 % 0 mm
10:30 21.1 °C 15.6 °C 1023.9 hPa NNE 2.7 km/h 3.7 km/h 71 % 0 mm
10:35 21.1 °C 15.4 °C 1023.9 hPa ENE 3.5 km/h 7.4 km/h 70 % 0 mm
10:40 21.1 °C 15.4 °C 1023.9 hPa NNE 3.2 km/h 11.3 km/h 70 % 0 mm
10:45 21.2 °C 15.7 °C 1023.9 hPa NE 2.1 km/h 5.6 km/h 71 % 0 mm
10:50 21.3 °C 15.8 °C 1023.9 hPa NE 1.8 km/h 4.8 km/h 71 % 0 mm
10:55 21.4 °C 15.5 °C 1023.9 hPa NNE 3.4 km/h 5.6 km/h 69 % 0 mm
11:00 21.7 °C 15.8 °C 1023.9 hPa NE 1.9 km/h 3.7 km/h 69 % 0 mm
11:05 22.1 °C 16.2 °C 1023.9 hPa ENE 3.4 km/h 5.6 km/h 69 % 0 mm
11:10 22.3 °C 15.8 °C 1023.9 hPa ENE 4.3 km/h 9.3 km/h 67 % 0 mm
11:15 22.6 °C 16.2 °C 1023.9 hPa ENE 3.1 km/h 9.7 km/h 67 % 0 mm
11:20 22.8 °C 16.1 °C 1023.9 hPa ENE 2.9 km/h 7.4 km/h 66 % 0 mm
11:25 22.9 °C 15.9 °C 1023.9 hPa NE 3.5 km/h 13 km/h 65 % 0 mm
11:30 23.3 °C 16.8 °C 1023.9 hPa NE 5.3 km/h 7.4 km/h 67 % 0 mm
11:35 23.6 °C 16.1 °C 1023.9 hPa ENE 4.5 km/h 7.4 km/h 63 % 0 mm
11:40 23.8 °C 16.6 °C 1023.9 hPa NE 3.5 km/h 5.6 km/h 64 % 0 mm
11:45 23.9 °C 16.4 °C 1023.9 hPa NE 1.3 km/h 5.6 km/h 63 % 0 mm
11:50 24.3 °C 17.3 °C 1023.9 hPa NE 0.2 km/h 1.9 km/h 65 % 0 mm
11:55 24.4 °C 16.4 °C 1023.9 hPa ENE 6.1 km/h 7.4 km/h 61 % 0 mm
12:00 24.6 °C 17.1 °C 1023.9 hPa NNE 0.8 km/h 3.7 km/h 63 % 0 mm
12:05 24.9 °C 16.3 °C 1023.9 hPa ENE 3.5 km/h 5.6 km/h 59 % 0 mm
12:10 25 °C 16.2 °C 1023.9 hPa NE 4.2 km/h 7.4 km/h 58 % 0 mm
12:15 25.1 °C 17.6 °C 1023.9 hPa NE 1.1 km/h 3.7 km/h 63 % 0 mm
12:20 25.2 °C 16.3 °C 1023.9 hPa ENE 2.7 km/h 7.4 km/h 58 % 0 mm
12:25 25.1 °C 16.2 °C 1023.6 hPa NE 4.7 km/h 13 km/h 58 % 0 mm
12:30 25.1 °C 16.5 °C 1023.6 hPa ENE 4.2 km/h 11.1 km/h 59 % 0 mm
12:35 24.9 °C 16.1 °C 1023.6 hPa ENE 3.9 km/h 9.3 km/h 58 % 0 mm
12:41 24.7 °C 16.7 °C 1023.6 hPa NE 1.6 km/h 14.5 km/h 61 % 0 mm
12:46 24.8 °C 16.6 °C 1023.6 hPa NE 4.8 km/h 9.7 km/h 60 % 0 mm
12:51 24.9 °C 17.2 °C 1023.6 hPa NNE 1.6 km/h 6.4 km/h 62 % 0 mm
12:56 25 °C 17.2 °C 1023.2 hPa NE 1.6 km/h 6.4 km/h 62 % 0 mm
13:01 25 °C 16.4 °C 1023.6 hPa NNE 6.6 km/h 7.4 km/h 59 % 0 mm
13:06 25 °C 17.2 °C 1023.6 hPa ENE 3.1 km/h 5.6 km/h 62 % 0 mm
13:11 25.1 °C 17.1 °C 1023.2 hPa NE 4.5 km/h 5.6 km/h 61 % 0 mm
13:16 25.3 °C 16.4 °C 1023.2 hPa ENE 5 km/h 8 km/h 58 % 0 mm
13:21 25.3 °C 17.5 °C 1023.2 hPa NE 2.1 km/h 3.7 km/h 62 % 0 mm
13:26 25.4 °C 16.8 °C 1023.2 hPa NE 6 km/h 9.3 km/h 59 % 0 mm
13:31 25.6 °C 17.7 °C 1023.2 hPa Calm   1.9 km/h 62 % 0 mm
13:36 25.7 °C 16.8 °C 1023.2 hPa NE 1.8 km/h 3.7 km/h 58 % 0 mm
13:41 25.7 °C 17.6 °C 1023.2 hPa NE 0.8 km/h 1.9 km/h 61 % 0 mm
13:46 25.7 °C 17.1 °C 1023.2 hPa ENE 0.8 km/h 3.7 km/h 59 % 0 mm
13:51 25.7 °C 16.6 °C 1022.9 hPa NE 2.4 km/h 5.6 km/h 57 % 0 mm
13:52 25.7 °C 17.1 °C 1022.9 hPa NE 2.9 km/h 8 km/h 59 % 0 mm
13:57 25.8 °C 17.2 °C 1022.9 hPa NE 6 km/h 11.1 km/h 59 % 0 mm
14:02 25.7 °C 16.6 °C 1022.6 hPa ENE 2.6 km/h 5.6 km/h 57 % 0 mm
14:07 25.7 °C 17.1 °C 1022.6 hPa NE 1.1 km/h 3.7 km/h 59 % 0 mm
14:12 25.8 °C 17.2 °C 1022.6 hPa NE 1.3 km/h 3.7 km/h 59 % 0 mm
14:17 26 °C 16.8 °C 1022.6 hPa NE 2.4 km/h 5.6 km/h 57 % 0 mm
14:22 25.9 °C 15.9 °C 1022.6 hPa East 5.3 km/h 11.1 km/h 54 % 0 mm
14:27 25.8 °C 15.8 °C 1022.6 hPa East 5.6 km/h 12.9 km/h 54 % 0 mm
14:32 25.7 °C 16.6 °C 1022.2 hPa NE 0.5 km/h 3.7 km/h 57 % 0 mm
14:37 25.8 °C 16.1 °C 1022.2 hPa ENE 0.6 km/h 5.6 km/h 55 % 0 mm
14:42 26 °C 14.8 °C 1022.2 hPa ENE 4 km/h 8 km/h 50 % 0 mm
14:48 26 °C 14.8 °C 1022.2 hPa ENE 0.6 km/h 7.4 km/h 50 % 0 mm
14:53 26.1 °C 14.8 °C 1022.2 hPa NE 2.6 km/h 5.6 km/h 50 % 0 mm
14:58 25.9 °C 14.1 °C 1022.2 hPa ENE 1.1 km/h 5.6 km/h 48 % 0 mm
15:03 25.9 °C 14.1 °C 1021.9 hPa East 2.3 km/h 8 km/h 48 % 0 mm
15:08 25.9 °C 14.3 °C 1021.9 hPa NE 1.8 km/h 5.6 km/h 49 % 0 mm
15:13 25.9 °C 14.1 °C 1021.9 hPa NE 1.3 km/h 5.6 km/h 48 % 0 mm
15:18 25.9 °C 13.4 °C 1022.2 hPa ENE 1.8 km/h 7.4 km/h 46 % 0 mm
15:23 26 °C 14.4 °C 1021.9 hPa ENE 0.8 km/h 3.7 km/h 49 % 0 mm
15:28 26 °C 13.5 °C 1021.9 hPa NE 1 km/h 3.7 km/h 46 % 0 mm
15:33 26.1 °C 13.9 °C 1021.6 hPa NE 0.8 km/h 3.7 km/h 47 % 0 mm
15:38 26.1 °C 13.9 °C 1021.6 hPa NE 1.4 km/h 4.8 km/h 47 % 0 mm
15:43 26.1 °C 13.2 °C 1021.9 hPa NE 1 km/h 3.7 km/h 45 % 0 mm
15:48 26.1 °C 12.9 °C 1021.9 hPa ENE 1.3 km/h 3.7 km/h 44 % 0 mm
15:53 26 °C 12.4 °C 1021.9 hPa ENE 0.3 km/h 1.9 km/h 43 % 0 mm
15:59 26 °C 12.8 °C 1021.9 hPa East 0.8 km/h 3.7 km/h 44 % 0 mm
16:04 25.9 °C 13.1 °C 1021.9 hPa East 0.8 km/h 3.7 km/h 45 % 0 mm
16:09 25.9 °C 12.3 °C 1021.9 hPa East 0.5 km/h 1.9 km/h 43 % 0 mm
16:14 25.8 °C 11.9 °C 1021.6 hPa East 0.8 km/h 1.9 km/h 42 % 0 mm
16:19 25.7 °C 12.5 °C 1021.6 hPa East 0.5 km/h 1.9 km/h 44 % 0 mm
16:24 25.6 °C 12.4 °C 1021.6 hPa East 1 km/h 1.9 km/h 44 % 0 mm
16:29 25.5 °C 13.1 °C 1021.6 hPa East 1.1 km/h 1.9 km/h 46 % 0 mm
16:34 25.4 °C 12.6 °C 1021.6 hPa East 0.6 km/h 1.9 km/h 45 % 0 mm
16:39 25.4 °C 12.7 °C 1021.6 hPa East 0.8 km/h 1.9 km/h 45 % 0 mm
16:44 25.4 °C 12.2 °C 1021.6 hPa East 0.2 km/h 3.7 km/h 44 % 0 mm
16:49 25.3 °C 12.2 °C 1021.2 hPa East 0.8 km/h 3.7 km/h 44 % 0 mm
16:54 25.2 °C 12.1 °C 1021.2 hPa East 0.5 km/h 1.9 km/h 44 % 0 mm
16:59 25.1 °C 12 °C 1021.2 hPa East 0.8 km/h 3.7 km/h 44 % 0 mm
17:04 25 °C 11.6 °C 1021.2 hPa East 0.3 km/h 1.9 km/h 43 % 0 mm
17:09 25 °C 11.9 °C 1021.6 hPa East 0.6 km/h 1.9 km/h 44 % 0 mm
17:14 24.9 °C 11.8 °C 1021.6 hPa East 0.2 km/h 1.6 km/h 44 % 0 mm
17:19 24.8 °C 12.4 °C 1021.6 hPa Calm     46 % 0 mm
17:24 24.8 °C 12.1 °C 1021.6 hPa East 0.2 km/h 1.9 km/h 45 % 0 mm
17:29 24.7 °C 11.9 °C 1021.6 hPa East 0.3 km/h 1.9 km/h 45 % 0 mm
17:34 24.6 °C 12.8 °C 1021.6 hPa East 0.2 km/h 1.9 km/h 48 % 0 mm
17:39 24.5 °C 12.8 °C 1021.6 hPa Calm     48 % 0 mm
17:44 24.4 °C 13.1 °C 1021.6 hPa East 0.2 km/h   49 % 0 mm
17:49 24.4 °C 13.3 °C 1021.6 hPa Calm   1.9 km/h 50 % 0 mm
17:54 24.3 °C 12.9 °C 1021.6 hPa Calm   1.9 km/h 49 % 0 mm
17:59 24.2 °C 12.8 °C 1021.6 hPa Calm   1.9 km/h 49 % 0 mm
18:04 24.1 °C 13 °C 1021.6 hPa Calm   1.9 km/h 50 % 0 mm
18:09 23.9 °C 13.2 °C 1021.6 hPa East 0.2 km/h 1.9 km/h 51 % 0 mm
18:14 23.8 °C 13.6 °C 1021.6 hPa Calm     53 % 0 mm
18:19 23.7 °C 13.8 °C 1021.6 hPa Calm     54 % 0 mm
18:24 23.6 °C 13.7 °C 1021.6 hPa Calm     54 % 0 mm
18:29 23.4 °C 13.6 °C 1021.9 hPa Calm     54 % 0 mm
18:34 23.3 °C 13.7 °C 1021.9 hPa Calm     55 % 0 mm
18:39 23.2 °C 13.9 °C 1021.9 hPa East 0.2 km/h 1.9 km/h 56 % 0 mm
18:45 23.1 °C 13.8 °C 1021.9 hPa Calm     56 % 0 mm
18:50 23.1 °C 14.1 °C 1021.9 hPa East 0.3 km/h 1.6 km/h 57 % 0 mm
18:55 22.9 °C 14.2 °C 1021.9 hPa ESE 2.6 km/h 5.6 km/h 58 % 0 mm
19:00 22.7 °C 14.6 °C 1021.9 hPa SE 1.9 km/h 1.9 km/h 60 % 0 mm
19:05 22.6 °C 14.7 °C 1022.2 hPa SE 1.6 km/h 5.6 km/h 61 % 0 mm
19:10 22.3 °C 14.4 °C 1022.2 hPa Calm   1.9 km/h 61 % 0 mm
19:15 22.1 °C 14.4 °C 1022.2 hPa SE 2.4 km/h 5.6 km/h 62 % 0 mm
19:20 21.8 °C 14.2 °C 1022.2 hPa SE 2.1 km/h 5.6 km/h 62 % 0 mm
19:25 21.6 °C 14.3 °C 1022.2 hPa Calm   3.7 km/h 63 % 0 mm
19:30 21.5 °C 14.4 °C 1022.2 hPa SE 0.6 km/h 5.6 km/h 64 % 0 mm
19:35 21.3 °C 14.2 °C 1022.2 hPa SE 0.3 km/h 1.9 km/h 64 % 0 mm
19:40 21.1 °C 14.1 °C 1022.2 hPa SE 1.8 km/h 3.7 km/h 64 % 0 mm
19:45 20.9 °C 14.1 °C 1022.2 hPa SE 1.3 km/h 5.6 km/h 65 % 0 mm
19:50 20.8 °C 14 °C 1022.2 hPa SE 3.7 km/h 5.6 km/h 65 % 0 mm
19:55 20.7 °C 13.8 °C 1022.2 hPa SE 2.4 km/h 6.4 km/h 65 % 0 mm
20:00 20.6 °C 13.7 °C 1022.2 hPa SE 2.3 km/h 5.6 km/h 65 % 0 mm
20:05 20.4 °C 13.9 °C 1022.2 hPa SE 1.4 km/h 3.7 km/h 66 % 0 mm
20:10 20.3 °C 13.8 °C 1022.2 hPa SE 1.3 km/h 3.7 km/h 66 % 0 mm
20:15 20.3 °C 13.7 °C 1022.2 hPa SE 0.3 km/h 5.6 km/h 66 % 0 mm
20:20 20.1 °C 13.8 °C 1022.2 hPa SE 0.2 km/h 1.9 km/h 67 % 0 mm
20:25 20.1 °C 13.9 °C 1022.2 hPa SE 1.3 km/h 3.7 km/h 68 % 0 mm
20:30 19.9 °C 13.8 °C 1022.6 hPa SE 0.3 km/h 3.7 km/h 68 % 0 mm
20:35 19.9 °C 13.8 °C 1022.6 hPa SE 0.3 km/h 1.9 km/h 68 % 0 mm
20:40 19.8 °C 14 °C 1022.2 hPa SE 0.5 km/h 1.9 km/h 69 % 0 mm
20:45 19.7 °C 13.9 °C 1022.2 hPa SE 1 km/h 3.7 km/h 69 % 0 mm
20:50 19.7 °C 13.8 °C 1022.2 hPa SE 0.2 km/h 1.9 km/h 69 % 0 mm
20:55 19.6 °C 13.7 °C 1022.2 hPa Calm   1.9 km/h 69 % 0 mm
21:00 19.5 °C 13.7 °C 1022.6 hPa SE 0.3 km/h 1.9 km/h 69 % 0 mm
21:05 19.4 °C 13.6 °C 1022.6 hPa Calm   1.9 km/h 69 % 0 mm
21:10 19.3 °C 13.4 °C 1022.6 hPa Calm     69 % 0 mm
21:15 19.2 °C 13.6 °C 1022.6 hPa Calm     70 % 0 mm
21:20 19.1 °C 13.7 °C 1022.6 hPa Calm     71 % 0 mm
21:25 19.1 °C 13.9 °C 1022.6 hPa Calm     72 % 0 mm
21:30 18.9 °C 13.7 °C 1022.6 hPa Calm     72 % 0 mm
21:35 18.8 °C 13.6 °C 1022.6 hPa Calm     72 % 0 mm
21:40 18.7 °C 13.5 °C 1022.6 hPa Calm     72 % 0 mm
21:45 18.5 °C 13.8 °C 1022.6 hPa Calm     74 % 0 mm
21:50 18.3 °C 14 °C 1022.6 hPa Calm     76 % 0 mm
21:55 18.1 °C 13.9 °C 1022.6 hPa Calm     77 % 0 mm
22:00 17.9 °C 13.8 °C 1022.6 hPa Calm     77 % 0 mm
22:05 17.8 °C 13.9 °C 1022.6 hPa Calm     78 % 0 mm
22:11 17.7 °C 14 °C 1022.6 hPa Calm     79 % 0 mm
22:16 17.5 °C 13.8 °C 1022.9 hPa Calm     79 % 0 mm
22:21 17.4 °C 13.5 °C 1022.6 hPa Calm   1.6 km/h 78 % 0 mm
22:26 17.3 °C 13.2 °C 1022.9 hPa Calm   1.6 km/h 77 % 0 mm
22:31 17.2 °C 13.1 °C 1022.9 hPa Calm   3.2 km/h 77 % 0 mm
22:36 17.1 °C 12.8 °C 1022.9 hPa Calm   3.2 km/h 76 % 0 mm
22:41 16.9 °C 12.7 °C 1023.2 hPa SE 1.6 km/h 4.8 km/h 76 % 0 mm
22:46 16.9 °C 12.4 °C 1023.2 hPa SE 1.6 km/h 4.8 km/h 75 % 0 mm
22:51 16.8 °C 12.6 °C 1023.2 hPa SE 1.6 km/h 3.2 km/h 76 % 0 mm
22:56 16.8 °C 12.6 °C 1023.2 hPa Calm   4.8 km/h 76 % 0 mm
23:01 16.8 °C 12.6 °C 1023.2 hPa SE 0.6 km/h 1.6 km/h 76 % 0 mm
23:06 16.9 °C 12.8 °C 1023.2 hPa SE 1.6 km/h 4.8 km/h 77 % 0 mm
23:11 16.9 °C 12.8 °C 1023.2 hPa SE 1.3 km/h 4.8 km/h 77 % 0 mm
23:16 16.9 °C 12.8 °C 1023.2 hPa SE 1.6 km/h 3.7 km/h 77 % 0 mm
23:21 16.9 °C 12.8 °C 1023.2 hPa Calm     77 % 0 mm
23:26 16.8 °C 12.8 °C 1023.2 hPa SE 0.6 km/h 1.9 km/h 77 % 0 mm
23:31 16.8 °C 12.8 °C 1023.6 hPa SE 1.4 km/h 3.7 km/h 77 % 0 mm
23:36 16.8 °C 12.8 °C 1023.2 hPa Calm   1.9 km/h 77 % 0 mm
23:41 16.8 °C 12.8 °C 1023.2 hPa Calm   1.9 km/h 77 % 0 mm
23:46 16.8 °C 12.7 °C 1023.2 hPa Calm     77 % 0 mm
23:51 16.8 °C 12.7 °C 1023.6 hPa Calm     77 % 0 mm
23:56 16.8 °C 12.9 °C 1023.6 hPa Calm     78 % 0 mm
Crab Meadow Weather
Compliments of Weather Underground - 3 mb

Script developed by  Jim McMurry - jmcmurry@mwt.net Adapted for the template by  Wim van der Kuil - Leuven-Template.eu

Weather Terms: Warning - A warning is issued when a hazardous weather or hydrologic event is occurring, imminent or likely. A warning means weather conditions pose a threat to life or property. People in the path of the storm need to take protective action.